• In Netherlands
  • List of Countries
  • For 7 days
  • Water Temperature
  • Satellite Maps
  • Weather Map
  • Weather Widgets
  • user-avatar
    Login

    Hourly Weather Ashtarak

    Today, 25 May, Friday

    Time Temperature Precipitation Wind Pressure Humidity
    00:00 +14°C° 0 mm 1 mps 656 mmHg 60%
    01:00 +14°C° 0 mm 1 mps 656 mmHg 59%
    02:00 +13°C° 0 mm 1 mps 656 mmHg 59%
    03:00 +13°C° 0 mm 1 mps 655 mmHg 59%
    04:00 +14°C° 0 mm 1 mps 655 mmHg 59%
    05:00 +15°C° 0 mm 1 mps 656 mmHg 60%
    06:00 +16°C° 0 mm 1 mps 656 mmHg 60%
    07:00 +18°C° 0.1 mm 1 mps 656 mmHg 57%
    08:00 +19°C° 0.1 mm 1 mps 656 mmHg 55%
    09:00 +19°C° 0 mm 2 mps 656 mmHg 50%
    10:00 +20°C° 0.2 mm 2 mps 656 mmHg 49%
    11:00 +21°C° 0.2 mm 2 mps 656 mmHg 48%
    12:00 +23°C° 0.2 mm 2 mps 656 mmHg 48%
    13:00 +23°C° 0.4 mm 2 mps 656 mmHg 47%
    14:00 +24°C° 0.4 mm 2 mps 656 mmHg 47%
    15:00 +24°C° 0.4 mm 2 mps 656 mmHg 47%
    16:00 +23°C° 0.4 mm 2 mps 655 mmHg 50%
    17:00 +23°C° 0.4 mm 2 mps 655 mmHg 53%
    18:00 +21°C° 0.4 mm 2 mps 655 mmHg 56%
    19:00 +21°C° 0.3 mm 1 mps 655 mmHg 59%
    20:00 +19°C° 0.3 mm 1 mps 655 mmHg 62%
    21:00 +18°C° 0.3 mm 1 mps 655 mmHg 66%
    22:00 +16°C° 0.3 mm 1 mps 655 mmHg 66%
    23:00 +16°C° 0.3 mm 1 mps 656 mmHg 67%

    Tomorrow, 26 May, Saturday

    Time Temperature Precipitation Wind Pressure Humidity
    00:00 +16°C° 0.3 mm 1 mps 656 mmHg 67%
    01:00 +15°C° 0.1 mm 1 mps 655 mmHg 68%
    02:00 +15°C° 0.1 mm 1 mps 655 mmHg 69%
    03:00 +15°C° 0.1 mm 1 mps 655 mmHg 69%
    04:00 +15°C° 0 mm 1 mps 655 mmHg 69%
    05:00 +16°C° 0 mm 1 mps 656 mmHg 68%
    06:00 +18°C° 0 mm 1 mps 656 mmHg 67%
    07:00 +19°C° 0.1 mm 1 mps 656 mmHg 62%
    08:00 +20°C° 0.1 mm 2 mps 657 mmHg 58%
    09:00 +21°C° 0.1 mm 2 mps 657 mmHg 53%
    10:00 +23°C° 0.2 mm 2 mps 657 mmHg 50%
    11:00 +24°C° 0.2 mm 2 mps 657 mmHg 48%
    12:00 +25°C° 0.2 mm 3 mps 657 mmHg 45%
    13:00 +26°C° 0.7 mm 3 mps 657 mmHg 44%
    14:00 +26°C° 0.7 mm 3 mps 657 mmHg 43%
    15:00 +26°C° 0.7 mm 3 mps 657 mmHg 43%
    16:00 +25°C° 0.5 mm 3 mps 657 mmHg 46%
    17:00 +25°C° 0.5 mm 2 mps 657 mmHg 50%
    18:00 +24°C° 0.5 mm 2 mps 657 mmHg 54%
    19:00 +21°C° 1 mm 2 mps 657 mmHg 58%
    20:00 +20°C° 1 mm 2 mps 657 mmHg 62%
    21:00 +18°C° 1 mm 2 mps 657 mmHg 66%
    22:00 +19°C° 1 mm 1 mps 657 mmHg 68%
    23:00 +18°C° 1 mm 1 mps 658 mmHg 69%

    Day after tomorrow, 27 May, Sunday

    Time Temperature Precipitation Wind Pressure Humidity
    00:00 +18°C° 1 mm 1 mps 658 mmHg 70%
    01:00 +18°C° 0.5 mm 1 mps 658 mmHg 70%
    02:00 +16°C° 0.5 mm 1 mps 658 mmHg 71%
    03:00 +16°C° 0.5 mm 1 mps 658 mmHg 71%
    04:00 +16°C° 0.1 mm 1 mps 658 mmHg 70%
    05:00 +18°C° 0.1 mm 1 mps 659 mmHg 69%
    06:00 +19°C° 0.1 mm 1 mps 659 mmHg 68%
    07:00 +20°C° 0 mm 1 mps 660 mmHg 61%
    08:00 +22°C° 0 mm 1 mps 660 mmHg 55%
    09:00 +24°C° 0 mm 1 mps 661 mmHg 49%
    10:00 +24°C° 0 mm 2 mps 661 mmHg 46%
    11:00 +25°C° 0 mm 2 mps 661 mmHg 43%
    12:00 +26°C° 0 mm 2 mps 661 mmHg 40%
    13:00 +27°C° 0.2 mm 2 mps 661 mmHg 39%
    14:00 +27°C° 0.2 mm 2 mps 661 mmHg 39%
    15:00 +27°C° 0.2 mm 1 mps 661 mmHg 38%
    16:00 +26°C° 0.3 mm 2 mps 661 mmHg 43%
    17:00 +25°C° 0.3 mm 2 mps 661 mmHg 48%
    18:00 +25°C° 0.3 mm 2 mps 661 mmHg 53%
    19:00 +23°C° 0.4 mm 2 mps 662 mmHg 59%
    20:00 +20°C° 0.4 mm 3 mps 662 mmHg 66%
    21:00 +18°C° 0.4 mm 3 mps 662 mmHg 73%
    22:00 +18°C° 0.2 mm 3 mps 662 mmHg 75%
    23:00 +17°C° 0.2 mm 3 mps 662 mmHg 77%

    28 May, Monday

    Time Temperature Precipitation Wind Pressure Humidity
    00:00 +17°C° 0.2 mm 3 mps 662 mmHg 80%
    01:00 +16°C° 0 mm 2 mps 662 mmHg 80%
    02:00 +16°C° 0 mm 2 mps 662 mmHg 81%
    03:00 +16°C° 0 mm 2 mps 662 mmHg 82%
    04:00 +16°C° 0 mm 2 mps 662 mmHg 80%
    05:00 +16°C° 0 mm 2 mps 662 mmHg 78%
    06:00 +18°C° 0 mm 1 mps 662 mmHg 76%
    07:00 +20°C° 0 mm 1 mps 662 mmHg 67%
    08:00 +22°C° 0 mm 1 mps 662 mmHg 58%
    09:00 +24°C° 0 mm 1 mps 662 mmHg 50%
    10:00 +25°C° 0.1 mm 1 mps 662 mmHg 47%
    11:00 +26°C° 0.1 mm 1 mps 661 mmHg 44%
    12:00 +27°C° 0.1 mm 2 mps 661 mmHg 41%
    13:00 +27°C° 0.2 mm 2 mps 661 mmHg 40%
    14:00 +28°C° 0.2 mm 2 mps 660 mmHg 39%
    15:00 +28°C° 0.2 mm 2 mps 660 mmHg 38%
    16:00 +27°C° 0.3 mm 1 mps 660 mmHg 42%
    17:00 +27°C° 0.3 mm 1 mps 660 mmHg 46%
    18:00 +26°C° 0.3 mm 1 mps 660 mmHg 50%
    19:00 +24°C° 0.6 mm 1 mps 660 mmHg 55%
    20:00 +22°C° 0.6 mm 1 mps 660 mmHg 60%
    21:00 +19°C° 0.6 mm 2 mps 659 mmHg 65%
    22:00 +18°C° 0.4 mm 2 mps 659 mmHg 68%
    23:00 +18°C° 0.4 mm 2 mps 659 mmHg 71%

    29 May, Tuesday

    Time Temperature Precipitation Wind Pressure Humidity
    00:00 +17°C° 0.4 mm 2 mps 659 mmHg 74%
    01:00 +17°C° 0.3 mm 2 mps 659 mmHg 74%
    02:00 +17°C° 0.3 mm 2 mps 659 mmHg 74%
    03:00 +17°C° 0.3 mm 2 mps 659 mmHg 74%
    04:00 +17°C° 0 mm 2 mps 659 mmHg 74%
    05:00 +18°C° 0 mm 1 mps 659 mmHg 73%
    06:00 +19°C° 0 mm 1 mps 659 mmHg 73%
    07:00 +20°C° 0 mm 1 mps 659 mmHg 66%
    08:00 +21°C° 0 mm 2 mps 660 mmHg 60%
    09:00 +23°C° 0 mm 2 mps 660 mmHg 53%
    10:00 +24°C° 0.1 mm 2 mps 660 mmHg 52%
    11:00 +25°C° 0.1 mm 2 mps 660 mmHg 50%
    12:00 +26°C° 0.1 mm 2 mps 659 mmHg 48%
    13:00 +25°C° 0.3 mm 2 mps 659 mmHg 51%
    14:00 +25°C° 0.3 mm 2 mps 659 mmHg 55%
    15:00 +24°C° 0.3 mm 2 mps 659 mmHg 58%
    16:00 +23°C° 1.4 mm 2 mps 658 mmHg 65%
    17:00 +20°C° 1.4 mm 2 mps 658 mmHg 72%
    18:00 +18°C° 1.4 mm 2 mps 658 mmHg 80%
    19:00 +18°C° 1.7 mm 2 mps 658 mmHg 81%
    20:00 +17°C° 1.7 mm 2 mps 658 mmHg 83%
    21:00 +17°C° 1.7 mm 2 mps 659 mmHg 84%
    22:00 +17°C° 0.4 mm 2 mps 659 mmHg 84%
    23:00 +16°C° 0.4 mm 2 mps 659 mmHg 84%

    30 May, Wednesday

    Time Temperature Precipitation Wind Pressure Humidity
    00:00 +16°C° 0.4 mm 2 mps 659 mmHg 84%
    01:00 +16°C° 0.1 mm 2 mps 659 mmHg 84%
    02:00 +15°C° 0.1 mm 2 mps 659 mmHg 84%
    03:00 +15°C° 0.1 mm 2 mps 658 mmHg 84%
    04:00 +15°C° 0 mm 2 mps 659 mmHg 83%
    05:00 +16°C° 0 mm 2 mps 659 mmHg 81%
    06:00 +16°C° 0 mm 2 mps 659 mmHg 80%
    07:00 +17°C° 0 mm 2 mps 659 mmHg 75%
    08:00 +19°C° 0 mm 2 mps 660 mmHg 69%
    09:00 +20°C° 0 mm 2 mps 660 mmHg 64%
    10:00 +21°C° 0 mm 2 mps 660 mmHg 60%
    11:00 +22°C° 0 mm 3 mps 660 mmHg 56%
    12:00 +24°C° 0 mm 3 mps 660 mmHg 52%
    13:00 +25°C° 0.4 mm 3 mps 660 mmHg 51%
    14:00 +25°C° 0.4 mm 2 mps 659 mmHg 50%
    15:00 +25°C° 0.4 mm 2 mps 659 mmHg 49%
    16:00 +25°C° 0.3 mm 2 mps 659 mmHg 53%
    17:00 +24°C° 0.3 mm 2 mps 659 mmHg 56%
    18:00 +22°C° 0.3 mm 3 mps 659 mmHg 59%
    19:00 +21°C° 0.3 mm 3 mps 659 mmHg 65%
    20:00 +20°C° 0.3 mm 3 mps 659 mmHg 70%
    21:00 +18°C° 0.3 mm 3 mps 659 mmHg 75%
    22:00 +18°C° 0.5 mm 2 mps 659 mmHg 76%
    23:00 +17°C° 0.5 mm 2 mps 658 mmHg 77%
    Show more